Вернуться в каталог

STARLINK-2726

АктивенСвязьVLEO
NORAD 48662·PAYLOAD·🇺🇸 United States

Запущен May 26, 2021 с Cape Canaveral Space Force Station

Loading…

Ближайшие Пролёты (ближайшие 24 часа)

TLE

СвежийSource: CelesTrak SupGP

Эпоха: Sep 14, 2026, 14:15 UTC

1 48662C 21044AA  26257.59423611  .00052803  00000+0  16981-2 0  2571
2 48662  53.1594 316.3000 0001331  76.5579 103.7997 15.31674506    10

Отслеживайте STARLINK-2726 в реальном времени с AllMySat

Download on the App Store